ANZ21V NTAA-NCRG

Flight info

Callsign ANZ21V
Flight time 1h 42m
Altitude 34000
Route ONIDO DCT MAITO G594 DALUN OSPID1A
Aircraft A320/M-SDE3FGHIRWY/LB1

Departure

Time 2026-04-25 19:19
Airport Fa'a'ā International Airport (NTAA)

Arrival

Time 2026-04-25 21:02
Airport Rarotonga International Airport (NCRG)
Time Latitude Longitude Altitude Speed Heading
2026-04-25 19:09 -17.55998 -149.61175 22 ft 0 kts 324°
2026-04-25 19:14 -17.55987 -149.61184 23 ft 6 kts 326°
2026-04-25 19:14 -17.55937 -149.61209 21 ft 10 kts 346°
2026-04-25 19:15 -17.55871 -149.61167 21 ft 14 kts 53°
2026-04-25 19:15 -17.55820 -149.61090 21 ft 14 kts 55°
2026-04-25 19:15 -17.55761 -149.61051 21 ft 6 kts 333°
2026-04-25 19:15 -17.55725 -149.61098 21 ft 10 kts 312°
2026-04-25 19:16 -17.55680 -149.61169 20 ft 13 kts 263°
2026-04-25 19:16 -17.55737 -149.61260 20 ft 17 kts 234°
2026-04-25 19:16 -17.55814 -149.61372 19 ft 21 kts 234°
2026-04-25 19:16 -17.55901 -149.61497 22 ft 22 kts 234°
2026-04-25 19:17 -17.55996 -149.61635 23 ft 25 kts 234°
2026-04-25 19:17 -17.56102 -149.61789 23 ft 25 kts 233°
2026-04-25 19:17 -17.56195 -149.61925 23 ft 15 kts 235°
2026-04-25 19:17 -17.56219 -149.62005 23 ft 10 kts 266°
2026-04-25 19:18 -17.56248 -149.61996 22 ft 9 kts 80°
2026-04-25 19:18 -17.56235 -149.61975 23 ft 3 kts 53°
2026-04-25 19:18 -17.56197 -149.61923 23 ft 18 kts 52°
2026-04-25 19:18 -17.56047 -149.61707 23 ft 67 kts 54°
2026-04-25 19:19 -17.55652 -149.61133 20 ft 123 kts 54°
2026-04-25 19:19 -17.55072 -149.60290 22 ft 165 kts 54°
2026-04-25 19:19 -17.54397 -149.59280 544 ft 166 kts 56°
2026-04-25 19:19 -17.53953 -149.58603 946 ft 168 kts 54°
2026-04-25 19:20 -17.52717 -149.57681 1733 ft 172 kts
2026-04-25 19:20 -17.51536 -149.57912 2243 ft 178 kts 332°
2026-04-25 19:20 -17.50609 -149.58791 2748 ft 184 kts 301°
2026-04-25 19:20 -17.50328 -149.60085 3287 ft 187 kts 258°
2026-04-25 19:21 -17.50938 -149.61294 3619 ft 202 kts 222°
2026-04-25 19:21 -17.53334 -149.63437 4202 ft 251 kts 225°
2026-04-25 19:21 -17.54312 -149.65028 4758 ft 268 kts 246°
2026-04-25 19:22 -17.55060 -149.66842 5564 ft 273 kts 246°
2026-04-25 19:22 -17.55810 -149.68682 6371 ft 279 kts 246°
2026-04-25 19:22 -17.57312 -149.72399 8696 ft 264 kts 249°
2026-04-25 19:23 -17.58020 -149.74156 9645 ft 265 kts 248°
2026-04-25 19:23 -17.59542 -149.77932 10438 ft 301 kts 248°
2026-04-25 19:23 -17.60393 -149.80038 10629 ft 324 kts 248°
2026-04-25 19:24 -17.61292 -149.82258 11076 ft 336 kts 248°
2026-04-25 19:24 -17.62212 -149.84529 11699 ft 340 kts 248°
2026-04-25 19:24 -17.64072 -149.89120 12992 ft 347 kts 247°
2026-04-25 19:25 -17.65985 -149.93844 13574 ft 359 kts 248°
2026-04-25 19:25 -17.66904 -149.96122 14013 ft 363 kts 248°
2026-04-25 19:25 -17.67892 -149.98570 14524 ft 366 kts 247°
2026-04-25 19:26 -17.68886 -150.01036 15027 ft 368 kts 247°
2026-04-25 19:26 -17.69886 -150.03519 15532 ft 371 kts 247°
2026-04-25 19:26 -17.70897 -150.06026 16036 ft 373 kts 247°
2026-04-25 19:26 -17.71913 -150.08544 16535 ft 376 kts 247°
2026-04-25 19:27 -17.72936 -150.11082 17031 ft 379 kts 247°
2026-04-25 19:27 -17.73615 -150.12770 17353 ft 380 kts 247°
2026-04-25 19:27 -17.74999 -150.16216 18025 ft 384 kts 247°
2026-04-25 19:27 -17.76023 -150.18773 18471 ft 387 kts 247°
2026-04-25 19:28 -17.77072 -150.21388 18900 ft 389 kts 247°
2026-04-25 19:28 -17.78126 -150.24013 19321 ft 391 kts 246°
2026-04-25 19:28 -17.79188 -150.26655 19766 ft 394 kts 246°
2026-04-25 19:28 -17.80257 -150.29314 20192 ft 396 kts 246°
2026-04-25 19:29 -17.81329 -150.31987 20627 ft 399 kts 246°
2026-04-25 19:29 -17.82408 -150.34675 21054 ft 401 kts 246°
2026-04-25 19:29 -17.83483 -150.37351 21469 ft 403 kts 246°
2026-04-25 19:29 -17.84580 -150.40083 21879 ft 406 kts 246°
2026-04-25 19:30 -17.85678 -150.42825 22273 ft 408 kts 246°
2026-04-25 19:30 -17.86778 -150.45577 22663 ft 411 kts 246°
2026-04-25 19:30 -17.87887 -150.48353 23065 ft 413 kts 246°
2026-04-25 19:30 -17.89000 -150.51142 23452 ft 415 kts 246°
2026-04-25 19:31 -17.90119 -150.53945 23785 ft 418 kts 246°
2026-04-25 19:31 -17.91231 -150.56728 24101 ft 420 kts 246°
2026-04-25 19:31 -17.92363 -150.59558 24430 ft 421 kts 246°
2026-04-25 19:31 -17.93501 -150.62409 24765 ft 423 kts 246°
2026-04-25 19:32 -17.94640 -150.65264 25093 ft 425 kts 246°
2026-04-25 19:32 -17.95781 -150.68129 25417 ft 426 kts 246°
2026-04-25 19:32 -17.96929 -150.71007 25742 ft 428 kts 246°
2026-04-25 19:32 -17.97690 -150.72916 25954 ft 429 kts 246°
2026-04-25 19:33 -17.99228 -150.76791 26389 ft 431 kts 246°
2026-04-25 19:33 -18.00381 -150.79700 26721 ft 432 kts 246°
2026-04-25 19:33 -18.01545 -150.82620 27053 ft 433 kts 246°
2026-04-25 19:33 -18.02713 -150.85546 27372 ft 435 kts 246°
2026-04-25 19:34 -18.03886 -150.88487 27711 ft 437 kts 246°
2026-04-25 19:34 -18.05043 -150.91401 28018 ft 439 kts 246°
2026-04-25 19:34 -18.06219 -150.94373 28342 ft 440 kts 246°
2026-04-25 19:34 -18.07396 -150.97354 28664 ft 442 kts 246°
2026-04-25 19:35 -18.08581 -151.00344 28991 ft 444 kts 246°
2026-04-25 19:35 -18.09767 -151.03339 29404 ft 443 kts 246°
2026-04-25 19:35 -18.10950 -151.06319 29951 ft 440 kts 246°
2026-04-25 19:35 -18.12125 -151.09281 30420 ft 438 kts 246°
2026-04-25 19:36 -18.13290 -151.12225 30845 ft 436 kts 246°
2026-04-25 19:36 -18.14454 -151.15167 31264 ft 434 kts 246°
2026-04-25 19:36 -18.15611 -151.18094 31681 ft 433 kts 246°
2026-04-25 19:36 -18.16764 -151.21017 32106 ft 432 kts 246°
2026-04-25 19:37 -18.17909 -151.23928 32545 ft 431 kts 246°
2026-04-25 19:37 -18.19052 -151.26841 32976 ft 429 kts 246°
2026-04-25 19:37 -18.20193 -151.29741 33409 ft 428 kts 245°
2026-04-25 19:37 -18.21321 -151.32598 33830 ft 428 kts 245°
2026-04-25 19:38 -18.22465 -151.35490 33971 ft 428 kts 245°
2026-04-25 19:38 -18.23616 -151.38394 33998 ft 432 kts 245°
2026-04-25 19:38 -18.25916 -151.44246 33989 ft 433 kts 245°
2026-04-25 19:39 -18.28218 -151.50100 33984 ft 433 kts 245°
2026-04-25 19:39 -18.30520 -151.55958 33997 ft 433 kts 246°
2026-04-25 19:40 -18.32766 -151.61848 33991 ft 433 kts 246°
2026-04-25 19:40 -18.34988 -151.67749 33999 ft 433 kts 246°
2026-04-25 19:41 -18.37220 -151.73643 34000 ft 433 kts 246°
2026-04-25 19:41 -18.38693 -151.77549 34001 ft 433 kts 246°
2026-04-25 19:42 -18.41668 -151.85448 34000 ft 433 kts 246°
2026-04-25 19:42 -18.43882 -151.91316 33999 ft 433 kts 246°
2026-04-25 19:43 -18.46110 -151.97218 33995 ft 434 kts 246°
2026-04-25 19:43 -18.48343 -152.03125 33997 ft 434 kts 246°
2026-04-25 19:44 -18.50571 -152.09038 34008 ft 434 kts 246°
2026-04-25 19:44 -18.52788 -152.14941 33995 ft 433 kts 246°
2026-04-25 19:45 -18.55008 -152.20852 33990 ft 433 kts 246°
2026-04-25 19:45 -18.57219 -152.26722 33993 ft 434 kts 246°
2026-04-25 19:46 -18.59434 -152.32642 33995 ft 434 kts 246°
2026-04-25 19:46 -18.61654 -152.38577 34006 ft 434 kts 246°
2026-04-25 19:47 -18.63867 -152.44500 34015 ft 434 kts 246°
2026-04-25 19:47 -18.66085 -152.50426 34012 ft 434 kts 246°
2026-04-25 19:48 -18.68299 -152.56352 34012 ft 434 kts 246°
2026-04-25 19:48 -18.70507 -152.62281 34012 ft 434 kts 246°
2026-04-25 19:49 -18.71971 -152.66212 34015 ft 434 kts 246°
2026-04-25 19:49 -18.74908 -152.74115 34016 ft 433 kts 246°
2026-04-25 19:50 -18.78208 -152.83003 34010 ft 433 kts 246°
2026-04-25 19:51 -18.80393 -152.88899 34009 ft 433 kts 246°
2026-04-25 19:51 -18.82584 -152.94826 34007 ft 433 kts 246°
2026-04-25 19:52 -18.84787 -153.00753 34013 ft 433 kts 246°
2026-04-25 19:52 -18.86983 -153.06684 34004 ft 433 kts 246°
2026-04-25 19:53 -18.89160 -153.12575 34000 ft 433 kts 246°
2026-04-25 19:53 -18.91351 -153.18518 34011 ft 433 kts 246°
2026-04-25 19:54 -18.93536 -153.24445 34004 ft 433 kts 247°
2026-04-25 19:54 -18.95717 -153.30387 33995 ft 433 kts 247°
2026-04-25 19:55 -18.97894 -153.36324 34006 ft 433 kts 247°
2026-04-25 19:55 -19.00060 -153.42225 34000 ft 433 kts 247°
2026-04-25 19:56 -19.02243 -153.48166 34002 ft 433 kts 246°
2026-04-25 19:56 -19.04424 -153.54107 34012 ft 433 kts 247°
2026-04-25 19:57 -19.06593 -153.60059 34011 ft 433 kts 247°
2026-04-25 19:57 -19.08393 -153.64999 34012 ft 433 kts 247°
2026-04-25 19:58 -19.10920 -153.71905 34016 ft 433 kts 246°
2026-04-25 19:58 -19.13095 -153.77847 34020 ft 433 kts 247°
2026-04-25 19:59 -19.15263 -153.83791 34025 ft 432 kts 247°
2026-04-25 19:59 -19.17418 -153.89718 34027 ft 431 kts 247°
2026-04-25 20:00 -19.19566 -153.95633 34029 ft 430 kts 247°
2026-04-25 20:00 -19.21695 -154.01502 34024 ft 430 kts 247°
2026-04-25 20:01 -19.24545 -154.09357 34016 ft 429 kts 247°
2026-04-25 20:01 -19.26678 -154.15255 34017 ft 429 kts 247°
2026-04-25 20:02 -19.28809 -154.21153 34021 ft 429 kts 247°
2026-04-25 20:02 -19.30939 -154.27053 34029 ft 429 kts 247°
2026-04-25 20:03 -19.33072 -154.32960 34022 ft 429 kts 247°
2026-04-25 20:03 -19.35185 -154.38823 34028 ft 429 kts 247°
2026-04-25 20:04 -19.37311 -154.44732 34019 ft 428 kts 247°
2026-04-25 20:04 -19.39442 -154.50643 34021 ft 429 kts 247°
2026-04-25 20:05 -19.41544 -154.56512 34022 ft 428 kts 247°
2026-04-25 20:05 -19.43661 -154.62434 34020 ft 428 kts 247°
2026-04-25 20:06 -19.45783 -154.68338 34020 ft 428 kts 247°
2026-04-25 20:06 -19.47885 -154.74193 34028 ft 428 kts 247°
2026-04-25 20:07 -19.49994 -154.80105 34015 ft 428 kts 247°
2026-04-25 20:07 -19.52101 -154.86003 34024 ft 428 kts 247°
2026-04-25 20:08 -19.54201 -154.91873 34013 ft 427 kts 247°
2026-04-25 20:08 -19.56300 -154.97771 34019 ft 427 kts 248°
2026-04-25 20:09 -19.58398 -155.03681 34013 ft 427 kts 248°
2026-04-25 20:09 -19.60501 -155.09585 34019 ft 428 kts 248°
2026-04-25 20:10 -19.62598 -155.15492 34015 ft 428 kts 248°
2026-04-25 20:10 -19.64678 -155.21355 34014 ft 427 kts 248°
2026-04-25 20:11 -19.66770 -155.27254 34020 ft 427 kts 248°
2026-04-25 20:11 -19.68850 -155.33166 34011 ft 427 kts 248°
2026-04-25 20:12 -19.70939 -155.39073 34008 ft 427 kts 248°
2026-04-25 20:12 -19.72672 -155.43991 34009 ft 427 kts 248°
2026-04-25 20:13 -19.75097 -155.50873 34017 ft 428 kts 248°
2026-04-25 20:13 -19.77190 -155.56787 34016 ft 428 kts 248°
2026-04-25 20:14 -19.79272 -155.62707 34013 ft 428 kts 248°
2026-04-25 20:14 -19.81335 -155.68603 34024 ft 428 kts 248°
2026-04-25 20:15 -19.83404 -155.74523 34033 ft 428 kts 248°
2026-04-25 20:15 -19.85485 -155.80450 34024 ft 427 kts 248°
2026-04-25 20:16 -19.87564 -155.86369 34023 ft 427 kts 248°
2026-04-25 20:16 -19.89631 -155.92288 34028 ft 427 kts 248°
2026-04-25 20:17 -19.91693 -155.98216 34021 ft 427 kts 248°
2026-04-25 20:17 -19.93745 -156.04109 34025 ft 427 kts 248°
2026-04-25 20:18 -19.95815 -156.10034 34026 ft 427 kts 248°
2026-04-25 20:18 -19.97882 -156.15960 34026 ft 427 kts 248°
2026-04-25 20:19 -19.99943 -156.21892 34025 ft 428 kts 248°
2026-04-25 20:19 -20.02001 -156.27835 34027 ft 428 kts 248°
2026-04-25 20:20 -20.04037 -156.33732 34027 ft 428 kts 248°
2026-04-25 20:20 -20.06096 -156.39677 34026 ft 428 kts 248°
2026-04-25 20:21 -20.08150 -156.45609 34027 ft 427 kts 248°
2026-04-25 20:21 -20.10201 -156.51547 34032 ft 427 kts 248°
2026-04-25 20:22 -20.11909 -156.56489 34027 ft 427 kts 248°
2026-04-25 20:22 -20.14288 -156.63397 34030 ft 427 kts 248°
2026-04-25 20:23 -20.16329 -156.69336 34032 ft 427 kts 248°
2026-04-25 20:23 -20.18366 -156.75275 34047 ft 427 kts 248°
2026-04-25 20:24 -20.20399 -156.81209 34047 ft 425 kts 248°
2026-04-25 20:24 -20.22431 -156.87131 34046 ft 424 kts 248°
2026-04-25 20:25 -20.24442 -156.92989 34050 ft 423 kts 248°
2026-04-25 20:25 -20.26461 -156.98876 34048 ft 423 kts 248°
2026-04-25 20:26 -20.28439 -157.04776 34046 ft 422 kts 249°
2026-04-25 20:26 -20.30343 -157.10692 34057 ft 422 kts 249°
2026-04-25 20:27 -20.32247 -157.16608 34059 ft 422 kts 249°
2026-04-25 20:27 -20.34164 -157.22522 34055 ft 422 kts 249°
2026-04-25 20:28 -20.36081 -157.28425 34058 ft 421 kts 249°
2026-04-25 20:28 -20.37995 -157.34323 34054 ft 421 kts 249°
2026-04-25 20:29 -20.39896 -157.40181 34044 ft 421 kts 249°
2026-04-25 20:29 -20.41804 -157.46087 34041 ft 421 kts 249°
2026-04-25 20:30 -20.43711 -157.51991 34038 ft 420 kts 249°
2026-04-25 20:30 -20.45614 -157.57888 34039 ft 420 kts 250°
2026-04-25 20:31 -20.47505 -157.63780 34045 ft 420 kts 250°
2026-04-25 20:31 -20.49384 -157.69633 34049 ft 419 kts 250°
2026-04-25 20:32 -20.51279 -157.75527 34045 ft 419 kts 250°
2026-04-25 20:32 -20.53179 -157.81414 34046 ft 419 kts 250°
2026-04-25 20:33 -20.55069 -157.87295 34048 ft 419 kts 250°
2026-04-25 20:33 -20.56634 -157.92186 34044 ft 419 kts 250°
2026-04-25 20:34 -20.58831 -157.99067 34038 ft 419 kts 250°
2026-04-25 20:34 -20.60707 -158.04957 34050 ft 419 kts 250°
2026-04-25 20:35 -20.62582 -158.10850 34039 ft 419 kts 250°
2026-04-25 20:35 -20.64456 -158.16744 34043 ft 419 kts 250°
2026-04-25 20:36 -20.66320 -158.22602 34034 ft 419 kts 250°
2026-04-25 20:36 -20.68201 -158.28495 34041 ft 419 kts 250°
2026-04-25 20:37 -20.70074 -158.34392 34043 ft 419 kts 250°
2026-04-25 20:37 -20.71940 -158.40291 34061 ft 419 kts 250°
2026-04-25 20:38 -20.73792 -158.46186 34060 ft 418 kts 250°
2026-04-25 20:38 -20.75634 -158.52038 34056 ft 417 kts 250°
2026-04-25 20:39 -20.77490 -158.57902 34052 ft 417 kts 250°
2026-04-25 20:39 -20.78728 -158.61826 34052 ft 417 kts 250°
2026-04-25 20:40 -20.80804 -158.69770 34056 ft 417 kts 255°
2026-04-25 20:40 -20.82076 -158.75825 34051 ft 417 kts 256°
2026-04-25 20:41 -20.83355 -158.81828 34057 ft 416 kts 255°
2026-04-25 20:41 -20.84706 -158.87848 34064 ft 416 kts 255°
2026-04-25 20:42 -20.86081 -158.93853 34057 ft 416 kts 255°
2026-04-25 20:42 -20.87444 -158.99858 34064 ft 415 kts 255°
2026-04-25 20:43 -20.88795 -159.05868 34056 ft 415 kts 255°
2026-04-25 20:43 -20.90143 -159.11872 34057 ft 415 kts 255°
2026-04-25 20:44 -20.91487 -159.17881 34065 ft 415 kts 255°
2026-04-25 20:44 -20.92827 -159.23895 34061 ft 415 kts 255°
2026-04-25 20:45 -20.94160 -159.29868 34063 ft 415 kts 255°
2026-04-25 20:45 -20.95503 -159.35883 34060 ft 415 kts 255°
2026-04-25 20:46 -20.96839 -159.41898 34050 ft 415 kts 255°
2026-04-25 20:46 -20.98174 -159.47915 34058 ft 415 kts 255°
2026-04-25 20:47 -20.99512 -159.53936 34055 ft 415 kts 256°
2026-04-25 20:47 -21.00850 -159.59953 34055 ft 416 kts 256°
2026-04-25 20:48 -21.02171 -159.65945 34055 ft 416 kts 256°
2026-04-25 20:48 -21.02833 -159.68965 33627 ft 416 kts 256°
2026-04-25 20:48 -21.03273 -159.70977 32755 ft 425 kts 256°
2026-04-25 20:49 -21.03958 -159.74110 31502 ft 437 kts 256°
2026-04-25 20:49 -21.04657 -159.77299 30483 ft 444 kts 256°
2026-04-25 20:49 -21.05364 -159.80511 29985 ft 437 kts 257°
2026-04-25 20:49 -21.06049 -159.83630 29836 ft 422 kts 257°
2026-04-25 20:50 -21.06708 -159.86635 29705 ft 407 kts 257°
2026-04-25 20:50 -21.07345 -159.89539 29565 ft 394 kts 256°
2026-04-25 20:50 -21.07962 -159.92348 29431 ft 381 kts 256°
2026-04-25 20:50 -21.08551 -159.95036 29189 ft 372 kts 256°
2026-04-25 20:51 -21.09137 -159.97719 28809 ft 368 kts 256°
2026-04-25 20:51 -21.09717 -160.00377 28301 ft 366 kts 256°
2026-04-25 20:51 -21.10328 -160.03067 27323 ft 378 kts 253°
2026-04-25 20:51 -21.11557 -160.05578 26340 ft 389 kts 231°
2026-04-25 20:52 -21.13715 -160.07398 25372 ft 405 kts 208°
2026-04-25 20:52 -21.15508 -160.08054 24719 ft 417 kts 194°
2026-04-25 20:52 -21.19457 -160.07799 23347 ft 443 kts 166°
2026-04-25 20:52 -21.22215 -160.06215 22130 ft 461 kts 144°
2026-04-25 20:53 -21.24363 -160.03610 20924 ft 476 kts 124°
2026-04-25 20:53 -21.25601 -160.00280 19720 ft 489 kts 104°
2026-04-25 20:53 -21.25767 -159.96665 18557 ft 498 kts 85°
2026-04-25 20:53 -21.24931 -159.93090 17652 ft 487 kts 69°
2026-04-25 20:54 -21.23327 -159.89974 16369 ft 471 kts 52°
2026-04-25 20:54 -21.21051 -159.87533 15133 ft 457 kts 35°
2026-04-25 20:54 -21.18314 -159.85946 13949 ft 444 kts 18°
2026-04-25 20:54 -21.15341 -159.85304 12653 ft 430 kts 360°
2026-04-25 20:55 -21.12413 -159.85647 11387 ft 414 kts 341°
2026-04-25 20:55 -21.09883 -159.86873 10188 ft 398 kts 323°
2026-04-25 20:55 -21.07687 -159.88596 8893 ft 386 kts 319°
2026-04-25 20:55 -21.05869 -159.90606 7876 ft 366 kts 300°
2026-04-25 20:56 -21.04821 -159.92976 7134 ft 342 kts 283°
2026-04-25 20:56 -21.04643 -159.95431 6433 ft 323 kts 259°
2026-04-25 20:56 -21.05391 -159.97597 6047 ft 303 kts 235°
2026-04-25 20:56 -21.06869 -159.99151 5671 ft 297 kts 211°
2026-04-25 20:57 -21.08792 -159.99853 5301 ft 293 kts 186°
2026-04-25 20:57 -21.10813 -159.99819 5047 ft 286 kts 177°
2026-04-25 20:57 -21.12749 -159.99705 5028 ft 271 kts 177°
2026-04-25 20:57 -21.14578 -159.99598 5035 ft 256 kts 177°
2026-04-25 20:58 -21.16306 -159.99499 5036 ft 242 kts 177°
2026-04-25 20:58 -21.17938 -159.99405 4782 ft 236 kts 176°
2026-04-25 20:58 -21.19501 -159.98972 4333 ft 232 kts 149°
2026-04-25 20:58 -21.20591 -159.97740 3889 ft 230 kts 118°
2026-04-25 20:59 -21.20943 -159.96071 3454 ft 230 kts 95°
2026-04-25 20:59 -21.20658 -159.94392 3073 ft 228 kts 73°
2026-04-25 20:59 -21.20085 -159.92831 2674 ft 225 kts 73°
2026-04-25 20:59 -21.19780 -159.91227 2200 ft 217 kts 91°
2026-04-25 21:00 -21.19752 -159.89682 1965 ft 200 kts 95°
2026-04-25 21:00 -21.19787 -159.88715 1742 ft 190 kts 99°
2026-04-25 21:00 -21.20100 -159.85983 1131 ft 143 kts 96°
2026-04-25 21:01 -21.20130 -159.84948 872 ft 135 kts 98°
2026-04-25 21:01 -21.20188 -159.83955 630 ft 132 kts 97°
2026-04-25 21:01 -21.20225 -159.82940 383 ft 135 kts 96°
2026-04-25 21:01 -21.20245 -159.81950 164 ft 130 kts 94°
2026-04-25 21:02 -21.20262 -159.80994 26 ft 116 kts 91°
2026-04-25 21:02 -21.20258 -159.80398 13 ft 50 kts 90°
2026-04-25 21:02 -21.20261 -159.80109 10 ft 34 kts 89°
2026-04-25 21:02 -21.20256 -159.79925 12 ft 18 kts 89°
2026-04-25 21:03 -21.20250 -159.79846 13 ft 11 kts 66°
2026-04-25 21:03 -21.20175 -159.79833 10 ft 10 kts 357°
2026-04-25 21:03 -21.20161 -159.79834 10 ft 0 kts 359°
2026-04-25 21:03 -21.20160 -159.79834 10 ft 0 kts 359°
2026-04-25 21:05 -21.20157 -159.79834 10 ft 0 kts 360°
2026-04-25 21:05 -21.20156 -159.79834 10 ft 0 kts 360°
2026-04-25 21:05 -21.20155 -159.79834 10 ft 1 kts 360°
2026-04-25 21:06 -21.20140 -159.79834 10 ft 3 kts 355°
2026-04-25 21:06 -21.20111 -159.79829 10 ft 0 kts 16°
2026-04-25 21:07 -21.20109 -159.79829 10 ft 1 kts 16°
2026-04-25 21:07 -21.20084 -159.79818 11 ft 4 kts 25°
2026-04-25 21:07 -21.20069 -159.79804 10 ft 3 kts 67°
2026-04-25 21:08 -21.20071 -159.79789 10 ft 2 kts 96°
2026-04-25 21:08 -21.20072 -159.79786 10 ft 0 kts 95°